Location: Aressy
(43.2833°N, 0.3167°W)
Time: 20:13:54
(UTC+00:00)

Meteor 2-1 Rocket - Pass Details

Date: 28 January 2021
Orbit: 827 x 910 km, 81.3° (Epoch: 02 March)

Event Time Altitude Azimuth Distance (km) Brightness Sun altitude
Rises 17:47:00 0° 348° (NNW) 3,391 7.3 -7.4°
Reaches altitude 10° 17:49:25 10° 347° (NNW) 2,447 6.6 -7.9°
Maximum altitude 17:54:56 77° 262° (W) 853 4.4 -8.8°
Drops below altitude 10° 18:00:24 10° 178° (S) 2,425 6.8 -9.8°
Sets 18:02:47 0° 176° (S) 3,358 7.5 -10.2°
